YB2NDX-15 Weather Reports


time (UTC)temp
C
wind
direction
speed
KPH
gust
KPH
rain 1hr
cm
rain 24hr
cm
rain mn
cm
humidity
%
barometer
mb
20260505192059 26 0.0 0.0 0.00 0.00 0.00 1008.2
20260505191053 26 0.0 0.0 0.00 0.00 0.00 1008.3
20260505190046 26 0.0 0.0 0.00 0.00 0.00 1008.2
20260505185039 26 0.0 0.0 0.00 0.00 0.00 1008.2
20260505184034 26 0.0 0.0 0.00 0.00 0.00 1008.4
20260505183027 27 0.0 0.0 0.00 0.00 0.00 1008.4
20260505182020 27 0.0 0.0 0.00 0.00 0.00 1008.6
20260505180008 27 0.0 0.0 0.00 0.00 0.00 1008.8
20260505175000 27 0.0 0.0 0.00 0.00 0.00 1009.0
20260505173954 27 0.0 0.0 0.00 0.00 0.00 1008.9
20260505172947 27 0.0 0.0 0.00 0.00 0.00 1008.9
20260505171941 27 0.0 0.0 0.00 0.00 0.00 1009.1
20260505170934 27 0.0 0.0 0.00 0.00 0.00 1009.3
20260505165928 28 0.0 0.0 0.00 0.00 0.00 1009.3
20260505164922 27 0.0 0.0 0.00 0.00 0.00 1009.5
20260505163916 28 0.0 0.0 0.00 0.00 0.00 1009.6
20260505162910 28 0.0 0.0 0.00 0.00 0.00 1009.6
20260505161903 28 0.0 0.0 0.00 0.00 0.00 1009.7
20260505160857 28 0.0 0.0 0.00 0.00 0.00 1009.6
20260505152831 28 0.0 0.0 0.00 0.00 0.00 1009.4
20260505151825 28 0.0 0.0 0.00 0.00 0.00 1009.2
20260505150818 28 0.0 0.0 0.00 0.00 0.00 1009.2
20260505124643 29 0.0 0.0 0.00 0.00 0.00 1008.8
20260505123639 29 0.0 0.0 0.00 0.00 0.00 1008.8
20260505122625 29 0.0 0.0 0.00 0.00 0.00 1008.8
20260505120613 30 0.0 0.0 0.00 0.00 0.00 1008.5
20260505114600 30 0.0 0.0 0.00 0.00 0.00 1007.8
20260505113553 30 0.0 0.0 0.00 0.00 0.00 1007.8
20260505112546 30 0.0 0.0 0.00 0.00 0.00 1007.5
20260505111537 30 0.0 0.0 0.00 0.00 0.00 1007.5
20260505110530 30 0.0 0.0 0.00 0.00 0.00 1007.5
20260505101459 31 0.0 0.0 0.00 0.00 0.00 1007.0
20260505100453 31 0.0 0.0 0.00 0.00 0.00 1006.9
20260505094440 32 0.0 0.0 0.00 0.00 0.00 1006.7
20260505093433 32 0.0 0.0 0.00 0.00 0.00 1006.6
20260505091420 32 0.0 0.0 0.00 0.00 0.00 1006.5
20260505090413 33 0.0 0.0 0.00 0.00 0.00 1006.4
20260505085407 33 0.0 0.0 0.00 0.00 0.00 1006.3
20260505084400 33 0.0 0.0 0.00 0.00 0.00 1006.3
20260505083353 33 0.0 0.0 0.00 0.00 0.00 1006.2
20260505082347 35 0.0 0.0 0.00 0.00 0.00 1006.1
20260505081340 38 0.0 0.0 0.00 0.00 0.00 1006.3
20260505080333 35 0.0 0.0 0.00 0.00 0.00 1006.1
20260505075326 32 0.0 0.0 0.00 0.00 0.00 1006.0
20260505074320 32 0.0 0.0 0.00 0.00 0.00 1005.9
20260505073314 32 0.0 0.0 0.00 0.00 0.00 1006.0
20260505072308 33 0.0 0.0 0.00 0.00 0.00 1006.1
20260505071301 35 0.0 0.0 0.00 0.00 0.00 1006.1
20260505070255 35 0.0 0.0 0.00 0.00 0.00 1006.2
20260505065248 35 0.0 0.0 0.00 0.00 0.00 1006.2
20260505064241 35 0.0 0.0 0.00 0.00 0.00 1006.5
20260505063234 35 0.0 0.0 0.00 0.00 0.00 1006.6
20260505062228 35 0.0 0.0 0.00 0.00 0.00 1006.7
20260505060215 35 0.0 0.0 0.00 0.00 0.00 1007.0
20260505055208 35 0.0 0.0 0.00 0.00 0.00 1007.1
20260505054202 35 0.0 0.0 0.00 0.00 0.00 1007.2
20260505053155 34 0.0 0.0 0.00 0.00 0.00 1007.4
20260505051141 35 0.0 0.0 0.00 0.00 0.00 1007.6
20260505050135 34 0.0 0.0 0.00 0.00 0.00 1007.6
20260505041103 35 0.0 0.0 0.00 0.00 0.00 1008.5
20260505040056 35 0.0 0.0 0.00 0.00 0.00 1008.6
20260505035051 35 0.0 0.0 0.00 0.00 0.00 1008.8
20260505033038 33 0.0 0.0 0.00 0.00 0.00 1009.2
20260505032031 33 0.0 0.0 0.00 0.00 0.00 1009.3
20260505031025 33 0.0 0.0 0.00 0.00 0.00 1009.5
20260505030018 33 0.0 0.0 0.00 0.00 0.00 1009.5
20260505025011 33 0.0 0.0 0.00 0.00 0.00 1009.6
20260505022958 32 0.0 0.0 0.00 0.00 0.00 1009.5
20260505021951 32 0.0 0.0 0.00 0.00 0.00 1009.4
20260505020945 32 0.0 0.0 0.00 0.00 0.00 1009.4
20260505015938 32 0.0 0.0 0.00 0.00 0.00 1009.6
20260505014932 31 0.0 0.0 0.00 0.00 0.00 1009.6
20260505013924 31 0.0 0.0 0.00 0.00 0.00 1009.7
20260505012918 31 0.0 0.0 0.00 0.00 0.00 1009.7
20260505005858 30 0.0 0.0 0.00 0.00 0.00 1009.5
20260505004852 30 0.0 0.0 0.00 0.00 0.00 1009.4
20260505003845 30 0.0 0.0 0.00 0.00 0.00 1009.3
20260505002840 29 0.0 0.0 0.00 0.00 0.00 1009.2
20260505001833 28 0.0 0.0 0.00 0.00 0.00 1009.1
20260505000826 28 0.0 0.0 0.00 0.00 0.00 1009.0
20260504234813 27 0.0 0.0 0.00 0.00 0.00 1008.8
20260504233806 26 0.0 0.0 0.00 0.00 0.00 1008.8
20260504232800 26 0.0 0.0 0.00 0.00 0.00 1008.7
20260504231753 26 0.0 0.0 0.00 0.00 0.00 1008.6
20260504230747 26 0.0 0.0 0.00 0.00 0.00 1008.5
20260504225740 26 0.0 0.0 0.00 0.00 0.00 1008.4
20260504224735 26 0.0 0.0 0.00 0.00 0.00 1008.3
20260504223728 26 0.0 0.0 0.00 0.00 0.00 1008.1
20260504222722 26 0.0 0.0 0.00 0.00 0.00 1008.1
20260504221715 26 0.0 0.0 0.00 0.00 0.00 1008.0
20260504220709 26 0.0 0.0 0.00 0.00 0.00 1008.1
20260504215703 26 0.0 0.0 0.00 0.00 0.00 1008.0
20260504212643 26 0.0 0.0 0.00 0.00 0.00 1008.0
20260504211637 26 0.0 0.0 0.00 0.00 0.00 1007.9
20260504210630 26 0.0 0.0 0.00 0.00 0.00 1007.9
20260504205624 26 0.0 0.0 0.00 0.00 0.00 1007.9
20260504204617 26 0.0 0.0 0.00 0.00 0.00 1007.8
20260504203610 26 0.0 0.0 0.00 0.00 0.00 1007.9
20260504202604 26 0.0 0.0 0.00 0.00 0.00 1008.0
20260504201557 26 0.0 0.0 0.00 0.00 0.00 1008.0
20260504200551 26 0.0 0.0 0.00 0.00 0.00 1007.9
20260504195545 26 0.0 0.0 0.00 0.00 0.00 1008.0
20260504194539 26 0.0 0.0 0.00 0.00 0.00 1008.2
20260504193533 26 0.0 0.0 0.00 0.00 0.00 1008.1